Theta_e
337 338 339 340 340 340 341 344 345 344 346 347 347 347 347 348 350 353 353 355 355 356 358 358 358 358 357 358 359 360 360 359 359 357 357 357 358 359 359 360 360 361 361 361 362 363 366 368 367 367 367 367 366 364 363 362 362 362 363 361 359 357 355
335 336 337 339 340 340 342 344 346 345 345 346 347 348 347 348 351 351 352 355 356 356 357 357 358 357 358 358 359 360 360 359 359 359 359 359 360 361 361 361 360 361 363 362 363 366 367 367 367 367 366 366 364 364 362 362 362 363 361 360 357 356 355
333 335 337 338 338 339 342 343 345 345 345 345 346 346 347 349 350 351 353 353 354 356 357 357 358 357 358 359 359 359 360 359 359 358 358 357 358 356 360 361 361 360 361 363 364 364 366 366 367 367 367 366 364 363 362 362 362 362 362 360 357 356 354
331 333 335 338 340 341 343 343 344 344 344 345 345 345 347 350 350 352 353 352 353 355 355 357 357 357 358 358 358 359 359 360 360 358 357 358 358 359 359 360 361 360 360 361 362 362 364 365 366 366 366 366 365 363 362 362 361 362 362 360 357 356 355
330 333 334 336 338 340 340 341 343 344 343 344 345 347 349 349 349 350 351 353 352 353 354 356 356 357 358 359 358 358 359 360 360 359 359 359 360 361 360 358 358 358 359 361 362 363 364 364 364 365 365 365 364 363 361 362 361 362 361 359 357 355 353
328 330 332 334 335 337 339 340 341 342 343 343 344 345 346 346 347 346 348 351 352 353 356 356 356 357 357 358 358 358 360 360 361 361 360 360 361 359 359 358 358 359 358 360 361 361 363 363 362 363 363 363 361 361 361 362 360 360 361 359 357 355 353
329 330 331 332 334 336 337 339 340 341 343 343 344 345 345 344 345 346 347 348 350 352 353 353 354 356 357 357 357 359 359 359 360 360 360 360 361 360 360 360 360 359 359 361 360 361 361 361 362 364 363 362 362 361 362 362 361 362 360 358 357 356 355
331 331 332 333 333 334 336 338 339 340 342 344 343 342 343 343 344 345 345 346 348 349 351 351 353 355 356 357 357 358 358 358 359 359 359 359 359 359 359 360 360 360 361 360 361 361 360 361 362 363 363 362 363 363 364 365 364 361 360 358 356 356 354
330 335 333 331 332 331 333 337 339 339 342 343 343 343 342 343 342 344 345 346 347 348 349 350 352 354 357 357 358 358 358 358 358 359 359 358 358 358 357 359 360 360 359 359 359 361 361 361 361 363 364 363 363 364 364 364 363 362 360 358 357 355 354
331 334 336 334 333 331 334 336 339 342 343 343 343 345 343 343 343 343 344 345 346 347 348 350 352 354 356 356 356 358 358 358 358 358 357 356 357 357 357 357 359 360 359 358 358 359 361 362 362 363 364 362 362 363 363 363 363 362 360 358 357 356 355
329 335 337 335 336 335 335 334 337 339 340 342 343 343 344 344 343 343 344 345 345 346 348 350 352 353 354 354 354 355 357 357 357 357 356 356 356 356 357 357 357 358 358 358 358 359 360 361 362 363 363 361 361 362 362 362 362 361 359 358 358 357 356
333 335 336 337 339 339 336 337 339 339 341 342 343 342 343 344 344 343 344 345 345 346 348 349 351 352 353 353 353 355 357 357 357 356 356 356 356 356 357 357 358 358 358 358 357 358 358 359 360 361 362 362 362 362 363 363 362 362 360 358 357 356 356
329 332 334 333 338 340 343 342 340 339 341 341 340 343 343 343 344 343 346 346 345 346 348 350 352 353 352 352 352 355 357 357 356 356 356 357 357 357 357 357 357 357 357 358 357 357 357 357 359 360 361 361 362 361 362 362 362 361 361 359 358 356 355
327 325 329 333 336 338 340 343 343 341 341 342 341 343 342 344 344 345 346 345 345 346 348 350 352 353 352 352 352 356 357 358 358 357 358 358 359 359 358 358 358 358 359 359 357 356 356 356 357 359 360 360 361 362 362 362 361 361 361 360 358 356 355
324 325 328 329 335 338 339 340 343 343 342 342 341 342 342 342 344 346 347 348 348 346 348 350 352 352 352 353 353 356 358 358 359 359 359 359 360 359 359 358 359 359 359 360 359 358 357 358 358 358 359 359 360 361 361 360 360 360 360 359 358 357 354
320 322 324 328 334 334 339 340 342 345 345 345 342 342 341 343 344 344 345 346 347 348 348 353 354 354 352 353 356 357 358 359 360 360 360 360 360 360 360 359 359 359 359 360 359 359 359 359 358 358 358 358 359 360 359 359 360 348 336 341 357 357 355
325 326 328 331 334 333 336 339 341 344 345 346 345 344 342 342 345 345 343 346 345 348 350 350 351 354 354 354 356 357 358 359 359 359 359 359 359 360 360 360 360 360 360 360 360 359 360 359 358 357 357 357 357 358 358 358 357 335 330 332 336 352 356
329 333 330 329 330 331 334 335 338 341 342 342 343 344 344 343 344 344 343 346 347 347 348 349 352 352 355 354 356 358 358 357 358 358 358 359 359 360 360 360 360 360 360 359 359 360 360 359 359 359 358 357 357 357 357 358 340 329 328 330 330 336 355
328 330 331 333 332 332 330 331 334 341 341 342 343 343 342 344 342 346 345 347 349 350 350 351 352 353 354 356 357 357 358 359 358 358 358 359 359 360 360 360 360 359 359 358 360 361 360 359 358 358 359 358 357 356 357 357 336 328 326 328 327 328 339
328 327 328 331 333 333 334 334 334 337 342 345 345 342 346 346 345 347 349 349 353 352 351 350 351 353 354 357 357 358 358 359 358 357 358 359 359 359 359 359 358 359 360 359 360 359 359 359 359 359 359 358 358 358 358 358 335 325 324 325 325 326 333
337 338 341 342 343 341 341 339 338 339 341 340 340 345 347 346 345 347 350 353 352 353 352 352 353 354 355 356 357 358 358 358 358 358 359 359 359 359 358 358 359 359 359 358 358 357 357 357 357 358 358 358 357 357 357 357 329 323 322 321 321 324 328
339 340 341 344 345 346 347 345 341 338 339 341 340 341 343 344 345 344 349 352 351 353 354 354 353 353 355 355 356 357 358 358 358 359 359 359 359 358 357 358 358 358 359 358 357 358 358 359 359 357 357 358 357 356 356 357 326 322 321 320 320 322 338
339 341 342 344 344 344 347 349 348 343 342 342 341 341 343 344 345 347 349 349 350 353 353 353 353 353 354 354 355 356 357 357 357 358 358 359 358 357 357 358 358 359 360 358 357 357 357 357 357 358 358 357 356 356 355 356 334 320 318 318 318 323 343
339 341 341 342 344 346 348 349 347 345 341 342 343 346 350 349 348 352 354 352 353 352 351 351 351 353 355 354 357 357 357 358 357 357 357 358 357 357 358 358 359 359 360 357 356 355 356 357 357 357 357 357 356 356 355 356 336 316 316 317 316 326 345
339 340 341 342 342 344 346 349 348 343 346 346 346 350 353 353 352 350 351 351 351 350 349 350 352 353 354 355 357 357 358 358 357 357 357 357 358 358 358 358 359 360 361 358 358 357 358 357 356 357 359 357 357 343 352 356 337 315 317 316 315 327 348
339 339 341 342 343 345 348 351 352 351 350 348 351 352 354 353 350 349 351 352 350 348 349 351 353 356 357 356 357 358 358 357 358 359 358 358 359 360 359 361 360 359 359 358 357 356 356 356 357 356 356 357 357 357 355 356 356 330 315 315 314 319 347
336 336 338 339 340 343 346 346 346 345 345 347 351 350 351 352 350 350 353 353 351 350 351 355 356 357 357 358 357 357 358 359 359 358 358 359 359 360 360 359 358 359 359 357 357 358 357 357 356 355 355 356 357 358 357 357 358 337 313 314 314 316 329
335 336 338 339 339 341 343 344 344 345 345 348 350 351 350 351 352 353 353 352 352 354 355 357 358 358 358 358 357 356 357 357 359 360 359 361 361 360 360 360 360 359 359 358 358 358 357 357 356 356 356 357 357 358 358 350 340 345 316 315 312 315 320
333 334 336 337 339 340 341 341 341 341 342 344 347 351 354 350 352 353 352 353 357 358 356 356 356 357 357 358 357 357 358 359 360 360 360 361 362 361 360 360 360 360 361 359 358 357 356 356 356 355 355 356 357 358 359 360 352 328 326 313 312 312 316
334 335 336 336 337 339 340 340 339 338 340 342 343 346 351 357 354 353 353 351 352 356 362 358 357 358 357 357 357 357 358 359 360 360 361 362 363 361 361 361 361 361 360 359 358 356 355 355 355 354 353 353 354 357 358 360 358 329 320 320 312 312 314
334 334 335 336 336 338 339 338 337 337 337 339 341 343 345 349 350 348 345 345 349 352 355 359 360 358 357 356 356 357 358 359 360 361 362 362 362 361 360 361 362 359 360 359 358 356 355 354 355 354 353 353 352 354 357 357 357 344 324 317 313 313 313
335 336 336 337 337 337 337 337 337 336 336 337 339 340 341 342 344 342 342 346 348 350 352 357 360 358 357 357 357 357 357 356 356 359 361 361 361 360 361 360 359 358 359 357 355 356 355 355 354 353 353 352 353 354 355 355 356 349 337 323 317 316 314
334 335 335 335 337 338 338 338 337 336 336 335 338 340 340 340 340 341 343 345 347 350 352 355 356 357 358 357 357 358 358 357 355 355 357 359 359 359 360 360 359 359 357 357 355 355 354 354 353 353 352 352 353 354 356 354 354 349 341 333 329 328 325
333 334 336 337 338 338 338 337 336 336 336 336 338 339 339 340 341 342 343 344 346 348 348 349 351 353 354 356 357 357 357 356 354 354 353 355 357 356 357 358 358 357 356 356 355 354 354 354 352 352 352 352 354 355 356 354 352 350 342 338 335 332 331
333 334 335 336 336 336 335 335 335 335 335 335 338 339 338 339 340 342 343 343 345 346 345 346 347 349 350 349 350 349 351 354 356 355 354 354 356 355 357 356 357 357 357 360 361 360 357 355 355 354 356 355 353 354 354 352 348 349 332 341 325 332 334
334 335 335 336 336 336 336 336 336 335 335 336 338 339 338 339 340 340 341 342 343 343 342 343 343 343 344 345 345 344 343 343 344 344 344 346 346 348 350 342 325 336 353 357 340 329 326 327 354 358 358 356 357 358 354 352 351 331 318 316 314 315 317
334 334 334 336 336 336 336 336 337 337 336 337 339 339 339 339 340 341 341 342 342 342 341 341 340 339 339 339 340 340 345 345 344 343 343 342 342 342 342 344 347 323 316 316 318 316 310 307 306 308 316 345 358 353 333 333 329 315 312 312 311 311 311
332 334 335 335 334 335 335 336 337 337 337 338 339 339 339 339 340 342 342 342 342 342 342 340 339 337 337 337 337 338 341 342 342 343 343 343 342 341 339 339 339 343 327 317 314 313 308 308 309 311 312 310 320 339 354 327 314 308 310 309 310 308 308
Wind_Speed
20 20 20 19 18 19 20 19 20 19 19 18 18 20 20 18 18 16 16 17 19 18 18 18 18 17 19 17 17 15 15 14 12 13 12 12 11 11 12 11 11 10 10 10 10 10 9 10 10 10 9 9 9 9 11 11 10 10 8 7 7 6 7
17 19 20 19 19 20 20 19 19 18 17 18 18 20 19 20 17 17 18 18 19 20 19 19 19 18 18 17 15 17 16 16 14 12 12 11 10 11 12 12 11 11 11 10 9 9 9 10 10 10 10 10 10 10 11 11 11 10 8 8 8 7 7
16 18 18 18 20 20 21 19 18 18 19 18 19 19 20 19 19 20 18 17 19 19 17 19 19 19 17 17 16 17 17 16 15 15 15 14 15 15 12 11 11 11 11 10 9 9 9 9 10 10 10 10 10 11 12 12 12 11 8 8 8 8 8
15 17 19 21 21 20 19 20 21 20 19 21 21 23 22 20 19 18 18 19 20 19 20 19 19 19 18 17 17 16 17 17 17 16 17 15 14 14 12 12 10 11 10 12 11 9 9 10 11 10 11 10 10 10 12 12 12 11 9 9 8 8 8
15 15 15 16 19 17 18 19 20 21 23 24 22 21 20 20 19 17 18 19 20 21 22 22 18 18 15 16 14 14 17 18 17 16 15 14 14 13 13 14 13 13 13 11 11 10 10 10 11 10 10 11 11 10 12 12 12 10 9 9 8 8 8
14 14 15 16 17 18 20 22 24 24 23 23 23 21 20 21 19 22 21 20 19 19 17 17 17 17 18 18 17 15 15 16 15 15 15 14 14 13 14 14 14 14 14 13 11 11 12 11 12 12 12 11 12 12 12 12 13 11 10 9 9 8 8
11 14 14 16 17 18 20 22 23 23 23 22 21 18 19 19 21 22 20 20 22 20 20 21 20 19 17 16 17 17 18 17 16 17 15 15 15 14 14 14 14 14 13 11 12 12 12 13 13 12 12 13 12 13 12 12 13 10 9 9 9 9 9
10 11 15 16 16 17 18 19 20 21 19 17 17 18 20 19 18 20 21 21 21 21 19 21 20 18 17 17 17 19 18 18 17 17 16 17 16 16 15 14 13 13 12 13 13 13 13 14 13 12 13 13 13 13 12 12 11 11 10 10 10 10 8
6 7 9 12 14 15 16 16 17 17 17 18 19 18 20 19 18 20 22 21 19 21 22 22 21 19 17 17 17 19 18 18 17 17 18 19 17 18 17 16 15 14 14 14 13 13 13 14 14 13 13 13 13 13 12 12 12 11 11 11 12 12 10
9 8 9 9 10 12 12 12 12 11 14 16 18 17 18 18 18 18 19 19 20 23 24 22 19 18 17 17 18 19 18 18 18 19 20 20 17 19 19 17 15 15 15 15 14 13 13 14 14 13 13 14 14 14 13 12 12 11 12 12 12 12 12
5 5 3 7 10 11 11 12 14 15 16 17 17 15 16 16 16 18 18 19 20 21 22 20 18 18 19 20 21 20 19 20 19 19 21 21 18 20 20 19 16 15 16 15 15 15 13 13 13 13 13 14 14 15 14 13 13 13 13 12 12 12 12
7 6 7 9 9 10 13 15 14 14 15 15 15 16 17 17 17 18 17 20 20 19 19 19 18 18 18 19 20 18 20 20 19 21 22 21 20 21 20 19 17 16 15 17 17 16 15 15 14 13 15 15 15 15 14 13 13 13 13 13 13 12 12
4 4 5 7 8 8 7 8 14 17 16 14 17 16 15 16 17 18 16 18 20 18 17 17 16 17 17 19 20 18 19 20 20 20 20 19 19 18 18 19 19 18 17 17 17 17 16 16 16 14 15 15 15 15 14 14 13 13 13 13 12 13 13
5 7 7 6 7 10 12 12 13 14 15 14 14 14 15 15 17 16 16 18 18 18 17 14 16 16 16 18 18 17 18 19 18 19 18 17 17 17 18 18 18 17 16 16 18 18 17 17 17 15 15 15 15 14 13 13 13 13 13 13 12 12 12
5 7 5 5 8 9 10 12 12 13 14 14 15 16 17 15 16 16 14 14 15 17 19 17 16 17 17 17 18 17 16 16 15 15 16 17 16 17 17 17 16 16 16 15 16 15 17 17 17 16 16 15 14 14 13 13 13 12 12 13 13 12 13
6 6 6 8 8 9 10 12 11 12 12 11 14 16 17 16 16 17 18 17 17 16 17 14 14 16 17 17 17 14 14 15 14 15 16 16 16 17 17 16 16 16 16 16 16 15 15 16 16 17 16 15 15 14 13 13 12 13 18 16 13 13 12
5 7 7 8 6 6 7 9 11 10 11 13 14 17 17 17 17 15 18 15 17 17 16 16 17 16 17 17 15 14 14 14 15 15 16 17 16 16 17 17 15 15 16 16 15 16 15 15 17 16 15 16 16 16 14 13 12 17 18 19 18 14 13
6 8 7 6 5 6 7 9 11 12 14 15 16 16 14 16 15 16 18 17 16 17 16 17 16 17 17 16 13 14 15 15 15 16 17 16 17 17 17 16 16 16 16 16 17 16 15 15 16 15 15 14 16 16 15 14 15 17 19 20 20 17 13
8 7 5 4 6 7 9 9 10 12 14 14 14 15 18 16 14 16 17 15 16 14 15 16 17 16 16 14 15 16 16 15 16 17 16 17 17 16 15 17 16 16 16 18 16 15 16 16 16 16 15 15 16 16 16 15 16 19 20 21 21 21 17
9 6 5 6 6 8 8 8 9 10 12 13 14 17 14 13 14 13 11 12 10 12 15 17 17 16 16 15 16 16 16 16 17 17 18 16 16 15 16 17 18 17 15 15 15 17 17 17 17 16 17 17 16 15 14 16 15 20 21 21 22 21 19
5 5 6 5 6 5 6 8 10 11 11 12 13 9 9 12 14 12 11 10 12 13 13 14 13 12 12 13 14 13 14 15 16 16 15 15 16 15 16 17 16 17 16 16 17 18 19 20 18 18 19 18 19 17 15 15 15 21 21 21 21 21 18
4 3 4 3 5 6 6 7 8 9 10 8 9 11 13 14 13 13 12 11 12 11 12 12 12 12 11 12 13 14 14 15 14 14 14 15 15 16 17 17 17 17 15 15 16 18 19 16 16 18 21 20 21 19 18 15 16 20 21 21 20 20 13
2 3 4 5 5 7 7 8 8 9 7 7 9 10 12 11 12 11 11 12 12 12 12 12 13 14 14 15 14 14 14 15 15 14 14 15 16 18 18 17 17 16 14 15 16 17 17 17 19 19 19 20 22 20 18 18 14 20 21 20 20 15 12
1 2 4 5 6 6 7 6 5 5 6 7 8 9 8 9 10 10 10 11 11 12 12 13 15 14 13 14 14 14 15 15 15 14 15 16 18 19 18 17 15 16 15 17 18 18 19 19 17 19 20 19 21 20 19 17 14 22 22 23 23 20 14
1 2 3 4 5 7 7 6 2 2 3 4 6 6 8 9 11 11 11 11 12 13 14 15 14 14 14 13 14 15 15 15 16 16 16 18 18 17 17 17 17 15 14 15 15 16 15 16 17 18 17 18 21 21 21 19 18 24 24 26 25 20 13
2 3 3 3 4 5 6 6 6 8 7 6 4 2 5 9 10 12 10 10 11 13 14 13 9 9 10 12 14 13 12 13 14 15 16 18 16 15 16 14 14 15 15 15 14 13 13 14 15 17 17 19 21 17 20 21 14 20 26 26 25 26 16
1 2 3 4 5 6 6 7 8 8 8 5 3 1 3 6 8 9 8 9 10 11 10 9 9 10 11 11 12 12 13 13 14 17 17 15 14 14 14 13 15 15 15 17 16 16 17 20 17 16 15 14 16 16 19 18 18 18 27 26 27 28 23
2 2 2 4 5 6 7 8 10 10 10 8 6 4 4 5 6 6 6 7 8 7 4 4 6 8 9 10 11 13 14 15 15 15 14 14 13 13 14 14 14 14 16 15 15 18 21 19 18 18 15 14 16 17 18 15 18 12 24 28 29 28 30
2 3 3 4 5 6 7 9 11 11 10 9 9 7 4 6 6 6 6 6 4 3 2 4 6 8 9 9 10 11 12 13 14 13 11 12 14 15 15 14 15 15 14 15 16 17 21 21 20 19 18 16 13 15 14 13 12 16 16 24 28 29 30
3 4 5 5 5 7 9 11 10 11 11 10 10 10 9 6 7 6 7 7 4 3 2 3 7 8 9 9 10 11 11 12 13 13 12 13 12 14 14 14 14 14 14 17 16 17 19 17 18 18 18 17 14 12 12 13 13 15 22 20 26 27 31
4 5 5 6 7 8 9 10 11 11 11 11 12 11 11 9 9 10 9 5 5 4 3 3 2 6 8 9 9 9 10 10 10 11 12 11 12 13 13 14 13 13 16 16 17 19 19 18 16 16 15 16 18 17 15 15 12 10 18 26 24 25 27
5 6 7 7 8 8 9 10 11 12 12 11 11 11 11 10 10 11 7 5 5 4 4 3 2 1 4 6 7 8 9 10 11 11 11 11 11 13 12 13 14 15 14 17 18 18 18 15 13 14 16 19 19 19 20 16 12 9 12 16 21 21 24
6 6 7 7 6 7 8 9 10 11 12 11 10 9 9 10 10 9 7 8 7 6 6 5 5 4 2 1 3 4 6 7 8 8 9 11 11 12 12 12 13 14 14 15 17 16 15 18 13 15 19 19 20 18 14 15 14 9 11 12 14 12 17
6 7 7 7 6 7 9 10 10 10 11 10 9 9 9 9 9 9 8 7 7 6 6 6 6 5 5 5 2 1 3 4 3 4 7 8 10 11 12 13 15 15 17 18 18 18 16 15 18 16 18 19 18 17 13 14 17 13 12 16 14 12 10
8 8 8 9 9 9 9 10 10 10 10 10 8 9 9 10 9 9 9 8 7 7 7 7 7 6 7 6 6 6 6 3 2 3 5 7 9 10 11 12 13 15 17 16 15 15 16 18 19 19 21 17 20 17 12 11 11 13 16 16 17 16 10
8 10 10 10 10 11 12 12 12 12 12 10 8 8 9 10 10 10 10 9 8 8 8 8 8 8 7 6 5 5 4 4 4 4 3 3 4 5 6 8 9 8 8 10 11 13 16 15 16 20 19 19 17 17 20 17 17 21 20 23 25 26 27
10 10 10 11 12 13 13 13 13 13 13 11 10 11 11 11 10 10 10 10 9 9 9 9 8 7 7 6 6 4 3 3 3 2 1 1 0 1 3 5 8 10 11 10 11 12 13 14 16 19 20 16 15 16 24 24 23 21 25 27 29 31 31
8 8 10 12 14 14 15 15 14 15 14 12 12 12 11 12 12 11 11 9 7 6 7 9 9 8 7 6 5 4 4 3 3 3 3 3 2 3 4 4 6 7 7 10 12 13 13 16 19 20 20 21 22 20 16 20 19 24 27 28 30 29 26
Wind_Direction
199 202 204 203 200 200 201 197 194 195 197 197 197 200 200 198 196 192 190 191 195 198 194 192 194 195 198 200 201 201 201 199 198 200 201 204 203 201 198 200 203 203 202 204 205 204 202 193 193 195 194 197 203 213 225 225 223 215 191 187 189 193 197
201 205 205 200 199 200 202 199 193 195 198 199 198 198 199 198 191 194 197 192 193 196 193 192 193 197 198 199 199 200 200 202 200 200 202 203 200 201 199 198 199 201 202 207 205 204 197 195 196 197 198 197 207 217 223 225 221 208 189 185 191 191 192
202 204 203 200 204 202 200 196 195 199 199 199 198 197 198 196 190 196 194 191 193 195 193 192 194 197 196 198 197 199 200 200 201 201 203 206 207 208 206 202 201 204 206 205 206 205 201 201 199 200 198 200 206 212 225 227 221 209 190 183 189 192 189
203 204 201 200 200 200 193 195 197 199 202 201 198 198 197 196 194 194 193 195 194 192 194 194 193 195 195 195 198 199 200 201 202 203 206 208 206 203 201 199 200 205 204 206 206 205 203 201 200 201 196 201 201 206 221 222 221 206 190 186 194 194 192
209 204 200 199 202 200 198 199 198 198 202 202 202 199 196 193 193 192 194 198 198 196 197 194 193 194 195 195 197 200 200 200 201 203 205 206 203 198 200 203 201 204 207 205 201 199 200 201 205 202 199 201 202 205 215 218 219 200 188 188 196 192 193
203 193 198 200 202 201 199 202 202 201 201 202 202 198 199 197 196 197 198 196 198 201 197 193 192 191 193 195 197 198 198 199 200 200 202 202 199 200 203 204 204 205 206 202 199 202 201 205 209 207 205 203 205 206 210 213 218 206 188 189 198 194 196
194 194 197 201 202 201 201 203 204 205 204 204 203 199 198 196 196 198 197 196 196 194 191 192 193 191 194 193 198 197 195 196 196 199 201 204 204 205 205 203 202 203 205 199 201 200 202 204 207 207 206 207 204 205 205 206 207 194 188 191 195 197 194
206 198 199 199 200 201 202 202 203 204 202 198 198 200 198 199 198 197 197 199 196 198 197 199 197 195 192 192 195 197 197 198 200 200 202 204 205 205 204 203 201 202 200 202 199 198 203 205 206 206 205 207 205 201 201 196 191 188 188 192 195 198 193
234 216 215 208 204 206 206 202 200 199 194 188 194 196 197 197 199 197 198 197 194 195 199 198 197 194 188 189 191 194 196 196 199 198 199 202 204 206 206 205 203 200 202 205 205 201 204 206 207 204 203 205 205 202 203 199 195 193 190 194 194 196 197
230 210 209 207 207 206 203 197 188 194 196 198 202 198 193 193 195 196 196 196 195 197 199 197 196 192 186 188 194 193 193 195 198 198 201 204 206 208 207 206 204 200 203 204 206 203 201 207 206 204 202 205 206 206 203 200 197 195 194 194 195 197 198
262 240 200 201 199 196 191 191 190 199 201 200 200 196 195 192 191 194 196 195 199 202 199 196 194 192 189 190 195 194 195 197 197 199 202 205 206 207 207 208 206 203 203 202 206 205 201 202 205 206 205 207 208 209 206 202 198 196 197 196 197 198 199
236 225 205 201 200 191 194 196 197 201 202 200 196 195 196 198 194 195 194 196 200 202 197 197 193 193 188 189 193 195 195 196 198 202 202 203 205 206 206 206 206 204 201 202 205 204 205 202 202 205 207 208 209 206 204 202 199 197 197 196 195 197 201
270 267 237 218 206 205 198 202 205 206 203 199 198 194 192 193 193 195 192 194 198 199 194 191 188 186 186 188 194 194 194 194 198 199 200 200 202 202 202 204 206 205 204 201 205 204 205 206 205 205 207 209 209 208 204 201 199 198 197 195 193 194 198
243 244 236 209 205 201 203 205 206 207 204 198 197 193 194 193 193 191 190 194 195 193 189 183 182 180 185 189 195 196 192 193 196 198 198 199 197 198 201 202 204 205 204 202 203 206 206 207 205 205 205 208 209 209 205 201 201 199 197 194 193 193 197
247 250 258 235 222 214 211 209 208 209 203 200 195 192 195 194 197 197 196 196 189 192 195 188 182 184 188 190 195 196 189 190 193 194 195 194 193 195 199 200 201 202 202 201 203 206 209 209 208 206 206 207 208 207 205 205 205 201 194 193 196 196 199
247 255 244 240 235 219 216 219 214 212 207 201 198 198 196 195 197 196 195 193 189 192 194 173 176 183 193 196 198 192 188 189 189 190 191 191 193 195 196 199 201 200 201 201 202 205 205 209 209 209 206 204 206 207 207 208 208 199 189 190 193 194 199
255 259 260 258 259 249 235 229 223 214 206 202 200 201 200 199 199 195 198 190 191 192 189 183 189 189 195 201 195 186 187 187 193 191 195 197 198 198 198 200 200 201 204 205 205 207 206 206 210 211 210 208 207 208 209 209 210 192 187 192 193 194 197
245 248 257 270 285 274 250 236 225 216 212 208 205 201 199 201 197 191 198 192 192 191 185 187 187 191 198 201 187 183 187 192 191 192 197 195 198 197 197 200 202 204 203 203 205 206 206 208 210 212 212 212 212 213 212 213 206 185 188 191 195 197 201
247 248 243 254 257 254 252 245 234 223 220 214 204 200 203 196 193 196 197 191 194 181 184 187 188 191 196 191 182 188 190 188 189 193 195 197 197 195 195 198 202 204 204 206 206 205 207 210 211 214 213 214 214 215 216 219 195 185 187 192 195 198 203
242 250 256 255 257 257 255 248 247 239 225 220 214 208 200 191 194 200 197 197 180 182 194 193 197 196 196 187 187 188 187 187 190 195 197 194 192 193 195 198 204 205 205 206 206 212 213 214 212 213 218 218 217 217 218 223 191 183 186 192 193 196 199
234 241 251 253 257 262 260 258 254 249 243 232 223 207 181 193 200 188 179 170 179 188 191 195 197 199 197 192 191 186 187 190 193 196 193 190 190 193 198 200 203 203 204 206 209 213 216 217 215 219 222 220 224 222 219 224 185 181 186 191 192 195 197
247 259 265 277 282 279 272 270 264 256 246 232 206 203 194 195 190 186 179 170 178 181 189 191 195 197 189 189 189 192 192 191 194 195 193 192 192 196 200 202 202 202 200 204 211 218 220 216 215 218 222 220 225 225 225 224 181 181 183 188 192 190 198
294 295 307 303 301 295 289 277 264 259 249 218 200 196 194 188 181 178 166 176 184 182 186 186 192 194 190 192 189 188 187 191 194 193 193 192 195 200 201 201 202 201 197 203 207 208 210 215 218 220 220 218 225 223 226 231 177 179 180 185 186 182 203
294 295 316 320 319 309 306 296 272 245 230 198 191 190 172 171 174 167 166 176 174 179 189 193 201 197 190 191 183 183 190 191 189 189 192 195 200 202 202 203 203 202 196 202 205 209 213 216 217 221 223 216 221 219 221 226 178 178 177 182 181 186 197
355 1 7 355 339 338 345 349 344 147 148 167 177 176 167 166 167 172 178 179 180 184 190 198 201 193 191 186 183 192 194 188 191 194 195 201 204 202 202 202 203 201 197 206 211 214 210 210 213 215 213 216 218 208 209 218 196 175 178 183 181 187 195
56 34 30 14 19 13 13 9 51 56 55 51 20 353 180 169 173 181 177 178 179 188 199 203 194 182 181 189 196 196 192 194 193 194 199 204 203 200 204 201 201 203 203 206 210 212 213 215 217 215 212 209 210 205 204 208 199 176 179 182 180 184 190
52 25 24 20 22 33 57 54 58 62 54 43 21 100 163 173 174 178 175 168 181 197 202 192 179 180 189 190 194 196 195 196 198 201 205 206 203 202 204 205 207 206 206 208 210 216 218 218 222 223 226 224 220 214 206 204 197 176 178 179 180 185 187
126 95 59 47 42 57 74 71 65 63 56 47 35 65 136 156 169 164 152 168 190 200 195 172 179 189 192 190 194 198 199 202 202 203 205 203 198 199 203 207 208 209 211 212 213 216 221 222 224 225 222 224 232 235 230 215 201 172 181 179 182 183 190
127 94 65 59 57 62 80 77 65 56 50 42 38 30 61 134 118 122 135 144 95 63 158 187 193 187 195 196 201 202 204 204 203 203 203 203 200 199 204 203 205 208 209 210 214 219 224 225 226 229 231 231 226 227 222 219 200 186 182 186 182 185 189
126 114 88 70 66 72 75 76 69 62 52 50 45 45 38 62 93 99 100 73 28 4 354 193 192 192 196 199 204 207 208 209 207 207 208 206 201 205 210 208 208 210 211 215 212 220 223 225 225 225 226 225 224 220 207 208 206 184 184 188 190 188 189
103 89 82 77 78 80 79 79 75 66 55 48 49 49 51 58 77 80 72 49 41 40 35 10 228 197 201 204 208 209 212 211 210 209 209 209 203 210 214 216 211 216 224 222 223 227 228 229 228 224 224 222 222 223 213 206 196 168 185 185 191 195 193
88 79 75 80 80 83 89 87 83 78 72 59 50 50 50 52 57 62 52 46 46 46 42 55 53 214 226 220 216 213 211 217 219 219 216 214 213 216 216 217 216 221 221 224 226 227 228 228 224 225 226 228 226 222 221 208 188 174 176 185 187 192 199
79 76 73 69 73 88 91 90 86 81 79 72 62 61 59 57 55 51 45 39 36 36 39 53 56 68 77 261 257 249 237 233 229 224 221 218 222 222 222 221 225 228 227 226 229 226 227 230 224 228 233 232 235 232 223 212 195 173 168 172 187 188 193
86 80 75 73 78 81 80 80 78 77 74 72 70 71 69 67 63 59 58 56 49 46 48 50 48 55 51 45 40 274 256 249 266 266 251 237 227 229 227 230 230 231 233 231 227 229 228 228 230 227 230 232 235 235 221 212 207 193 177 186 180 181 174
81 79 80 78 73 75 80 84 84 80 76 73 71 69 67 64 62 59 57 54 51 52 59 60 60 61 61 57 53 45 32 15 333 274 258 254 253 249 249 244 243 241 242 234 232 228 230 234 234 230 231 228 235 229 202 200 197 201 190 181 179 174 170
84 84 85 85 87 89 88 87 87 86 82 79 76 74 71 69 67 62 56 55 56 60 66 69 68 67 63 58 57 58 68 69 68 54 40 13 349 340 327 341 334 317 294 277 273 266 253 246 242 240 236 236 230 225 222 210 203 200 171 171 172 177 180
75 80 81 86 87 83 83 82 81 78 73 68 67 65 65 63 61 58 54 54 59 65 72 79 82 76 67 62 55 37 42 64 73 89 89 131 301 268 298 296 294 293 286 269 270 272 282 287 291 295 289 267 241 227 221 221 209 176 175 178 179 182 180
46 54 65 68 66 64 63 62 60 61 61 60 59 59 58 57 52 48 48 45 43 55 69 73 76 75 73 69 75 66 54 53 41 28 22 24 9 0 343 324 315 304 285 288 286 285 271 263 258 255 252 261 261 251 231 218 187 171 180 183 185 184 180